This is the latest recevied weather packets stored in our database for station/object XQ6AK-15. If no packets are shown the sender has not sent any weather packets the latest 1 day(s).
| Time | Temp. | Humidity | Pressure | Rain* | Wind** | Luminosity | Snow |
|---|---|---|---|---|---|---|---|
| 1778056524 | 8.89° C | 99% | 1005 hPa | 3.05 mm | - | 0 W/m² | - |
| 1778055918 | 8.89° C | 99% | 1005 hPa | 1.78 mm | - | 0 W/m² | - |
| 1778055312 | 8.89° C | 99% | 1004.7 hPa | 1.27 mm | - | 0 W/m² | - |
| 1778055009 | 8.89° C | 99% | 1004.8 hPa | 1.78 mm | - | 0 W/m² | - |
| 1778054404 | 8.89° C | 99% | 1004.9 hPa | 3.05 mm | - | 0 W/m² | - |
| 1778054101 | 8.89° C | 99% | 1004.9 hPa | 3.05 mm | - | 0 W/m² | - |
| 1778053495 | 8.89° C | 99% | 1005.1 hPa | 1.78 mm | - | 0 W/m² | - |
| 1778053192 | 8.89° C | 99% | 1005 hPa | 1.78 mm | - | 0 W/m² | - |
| 1778052587 | 8.89° C | 99% | 1005.1 hPa | 3.05 mm | - | 0 W/m² | - |
| 1778052284 | 8.89° C | 99% | 1005.3 hPa | 3.05 mm | - | 0 W/m² | - |
| 1778051982 | 8.89° C | 99% | 1005.2 hPa | 4.83 mm | - | 0 W/m² | - |
| 1778051073 | 8.89° C | 99% | 1005.6 hPa | 6.1 mm | - | 0 W/m² | - |
| 1778050770 | 8.89° C | 99% | 1005.2 hPa | 8.89 mm | - | 0 W/m² | - |
| 1778050468 | 8.89° C | 99% | 1005.4 hPa | 7.11 mm | - | 0 W/m² | - |
| 1778050164 | 9.44° C | 99% | 1005.2 hPa | 4.83 mm | - | 0 W/m² | - |
| 1778049255 | 9.44° C | 99% | 1005 hPa | 1.27 mm | - | 0 W/m² | - |
| 1778048953 | 9.44° C | 99% | 1004.9 hPa | 3.05 mm | - | 0 W/m² | - |
| 1778046529 | 9.44° C | 99% | 1005.3 hPa | 4.83 mm | - | 0 W/m² | - |
| 1778046226 | 9.44° C | 99% | 1005.4 hPa | 3.05 mm | - | 0 W/m² | - |
| 1778045621 | 9.44° C | 99% | 1005.4 hPa | 4.32 mm | - | 0 W/m² | - |
| 1778045319 | 9.44° C | 99% | 1005.2 hPa | 3.05 mm | - | 0 W/m² | - |
| 1778044715 | 9.44° C | 99% | 1005.3 hPa | 1.27 mm | - | 0 W/m² | - |
| 1778044411 | 9.44° C | 99% | 1005.3 hPa | 0 mm | - | 0 W/m² | - |
| 1778042896 | 10° C | 99% | 1005.2 hPa | 3.56 mm | - | 0 W/m² | - |
| 1778042594 | 10° C | 99% | 1005.3 hPa | 1.27 mm | - | 0 W/m² | - |
* Rain latest hour (hover to see other rain measurements)
** Current wind speed in m/s (hover to see current wind gust speed)